Weather Roundup
Issued by NWS

Home | Current Version | Previous Version | Text Only | Print | Product List | Glossary On
Versions: 1 2 3 4 5 6 7 8 9 10 11 12 13 14 15 16 17 18 19 20 21 22 23 24 25 26 27 28 29 30 31 32 33 34 35 36 37 38 39 40 41 42 43 44 45 46 47 48 49 50
000
NZUS93 KARX 192110
HRRWXR

CURRENT HOURLY OBSERVATIONS ACROSS
MUCH OF THE UPPER MISSISSIPPI VALLEY
NATIONAL WEATHER SERVICE LA CROSSE WI
300 PM CST SUN FEB 19 2017


...SOUTHEAST MINNESOTA...


CITY           SKY/WX    TMP DP  RH WIND       PRES   REMARKS
ROCHESTER      SUNNY     55  44  66 SE14      29.92F
ROCHESTER/MAYO FAIR      59  41  52 SE9G18    29.92F
WINONA         MOSUNNY   57  36  44 SE8       29.95F
AUSTIN         SUNNY     57  46  67 SE10      29.90S
ALBERT LEA     SUNNY     57  48  72 SE14      29.88S
DODGE CENTER   CLOUDY    55  46  71 SE15      29.91S
PRESTON        SUNNY     57  42  55 SE10      29.94S
OWATONNA       MOSUNNY   59  45  58 SE18      29.88R
FARIBAULT      PTSUNNY   61  46  59 SE12      29.88S
$$

...ELSEWHERE IN MINNESOTA...


CITY           SKY/WX    TMP DP  RH WIND       PRES   REMARKS
MINNEAPOLIS    CLOUDY    58  40  51 SE15      29.88F
INTNL FALLS    CLOUDY    44  30  57 E10       29.89F
DULUTH         CLOUDY    41  31  67 E12       29.95R
RED WING       MOSUNNY   57  36  44 SE12      29.91F
REDWOOD FALLS  MOSUNNY   60  49  66 SE17      29.78S
MANKATO          N/A     59  49  69 SE15      29.84F
WORTHINGTON    MOSUNNY   61  52  72 SE15G22   29.77F
FAIRMONT       PTSUNNY   60  53  77 SE17      29.82F
$$

...SOUTHWEST WISCONSIN...


CITY           SKY/WX    TMP DP  RH WIND       PRES   REMARKS
LA CROSSE      SUNNY     63  36  36 S5        29.96F
PRAIRIE DU CHI CLOUDY    63  40  41 E8        29.97S
BOSCOBEL       CLOUDY    65  37  35 VRB6      29.99R
LONE ROCK      SUNNY     64  40  41 SE6       30.01R
PLATTEVILLE    SUNNY     62  41  46 SE6       30.00S
FORT MC COY    SUNNY     64  34  33 S9        29.99S
CAMP DOUGLAS   PTSUNNY   61  34  36 SE8       29.99S
MAUSTON-NEW LI CLEAR     63  35  36 SE9       30.00R
VIROQUA        FAIR      59  37  44 SE3       29.98S
WIS DELLS      SUNNY     61  35  37 S7        30.00S
$$

...ELSEWHERE IN WISCONSIN...


CITY           SKY/WX    TMP DP  RH WIND       PRES   REMARKS
MILWAUKEE      PTSUNNY   53  31  42 SE9       30.06S
MADISON        PTSUNNY   61  35  37 S9        30.02S
GREEN BAY      SUNNY     57  39  51 SW6       30.04R
EAU CLAIRE     MOSUNNY   58  30  34 S14       29.95F
BLACK RVR FLS  FAIR      64  28  26 S6        29.98R
MEDFORD        CLOUDY    48  32  54 S5        30.00R
WAUSAU         SUNNY     57  31  37 CALM      29.99S
WIS RAPIDS     SUNNY     62  34  35 VRB5      30.01S
MARSHFIELD     SUNNY     55  31  39 SE8       29.99S
RICE LAKE      PTSUNNY   54  33  46 SE10      29.96F
$$

...NORTHEAST IOWA...


CITY           SKY/WX    TMP DP  RH WIND       PRES   REMARKS
WATERLOO       MOSUNNY   66  44  45 SE12      29.92F
DUBUQUE        SUNNY     64  36  35 SE10      29.99S
DECORAH        SUNNY     59  43  55 SE7G15    29.95R
MASON CITY     MOSUNNY   58  50  75 SE15      29.89F
CHARLES CITY   MOSUNNY   61  48  63 SE14      29.92S
OELWEIN        CLOUDY    63  46  55 SE14      29.95S
$$

...ELSEWHERE IN IOWA...


CITY           SKY/WX    TMP DP  RH WIND       PRES   REMARKS
DES MOINES     CLOUDY    73  46  38 S18       29.89S
IOWA CITY      CLOUDY    71  43  36 SE10      29.97S
FORT DODGE     CLOUDY    66  48  52 S13G24    29.86S
MARSHALLTOWN   MOSUNNY   68  49  50 S17       29.89F
CEDAR RAPIDS   CLOUDY    68  43  40 SE13      29.95R
$$

...NORTHERN ILLINOIS...


CITY           SKY/WX    TMP DP  RH WIND       PRES   REMARKS
CHICAGO-OHARE  MOSUNNY   68  31  25 VRB3      30.04R
CHICAGO-MIDWAY PTSUNNY   65  31  28 E9        30.05R
MOLINE         MOSUNNY   74  37  26 S9        29.97S
ROCKFORD       PTSUNNY   67  40  37 SE8       30.05R
PEORIA         SUNNY     68  44  42 S9        30.03S
$$

NOTE: "FAIR" INDICATES FEW OR NO CLOUDS BELOW 12,000 FEET WITH NO
SIGNIFICANT WEATHER AND/OR OBSTRUCTIONS TO VISIBILITY. WIND
SPEEDS ARE IN MILES-PER-HOUR.




USA.gov is the U.S. government's official web portal to all federal, state and local government web resources and services.